FENGYUN 1C DEB

Satellite information

Favourite Embed

Satellite Type and Status

DEBRISIN ORBIT

Key statistics

Satellite FENGYUN 1C DEB at a glance.

Uptime

9555

Days in orbit

Revolutions

≈ 14.1

Per day

Orbit

SSO

Sun Synchronous Orbit

Inclination

99.0

Latest

Satellite identification and parameters

Extended collection of information and parameters for FENGYUN 1C DEB.

Object identification

Identified? True

Debris? True

Object name: FENGYUN 1C DEB

International designator: 1999-025AZE

Object number (NORAD): 30916

Object ID (CCSDS): 30916

Country: PEOPLES REPUBLIC OF CHINA (PRC)

Current information (Y/N): Y

RCS size: SMALL

Orbital parameters

Period: 102.264 minutes

Inclination: 99.0204 deg

SMA: 7243.951 km

Apoapsis: 911.408 km

Periapsis: 820.224 km

RAAN: 247.6478 deg

Eccentricy: 0.0062938

Argument of periapsis: 346.215 deg

Mean anomaly: 41.494 deg

Mean motion: 14.08119464 rev/day

Mean motion (dot): 0.00000921 rev/day2

B* drag term: 0.00055698 1/REarth

Two-line elements (TLE)

Creation date: July 6, 2025, 6:05 p.m.

Reference frame: TEME

Reference center: EARTH

Epoch: July 6, 2025, 3:19 a.m. UTC

TLE line 0: 0 FENGYUN 1C DEB

TLE line 1: 1 30916U 99025AZE 25187.13885397 .00000921 00000-0 55698-3 0 9999

TLE line 2: 2 30916 99.0204 247.6478 0062938 346.2150 41.4940 14.08119464935975

Live tracking on map

Real-time ground track for satellite FENGYUN 1C DEB.

In-orbit conjunctions

A list of the most updated potential collisions computed for object FENGYUN 1C DEB.

Target Orbit TCA Probability of collision Miss distance Type
AUREOLE 3 LEO 2025-03-29 14:15:46 0.0001950602 335.0 (m) PAYLOAD
CZ-6A DEB LEO 2025-02-05 02:57:47 0.0002096605 482.0 (m) DEBRIS
METEOR 2-17 DEB LEO 2024-08-13 16:48:38 0.0001073502 72.0 (m) DEBRIS

Associated space launch

Chinese polar orbiting meteorological satellite

FENGYUN 1C DEB was lifted into orbit during the mission ‘Long March 4B | Feng Yun 1C’, on board a Long March 4B space rocket.

The launch took place on May 10, 1999, 1:33 a.m. from Launch Complex 7.

For more information about the launch, click the button.

Launch to space Long March 4B | Feng Yun 1C
Long March 4B | Feng Yun 1C

Agency: N/A

Status: Launch Successful

Launch date: May 10, 1999, 1:33 a.m. UTC

Rocket: Long March 4B

Launch pad: Launch Complex 7

Location: Taiyuan Satellite Launch Center, People's Republic of China

...

Latest news about this satellite

There are no fresh news available about this satellite. Check back as we update our databases every day.


Newsletter sign-up

Weekly statistics, charts and insights to help you stay on top of the space industry.